Погода в Вандыше

Россия / Архангельская область     61°19′50″N   40°14′51″E
темп.,
°C
ветер,
м/с
пор.,
м/с
влажн.,
%
обл.,
%
осадки,
мм/ч
давл.,
гПа
погр.,
м
5 августа, чт
чт500:00+9зюз210711 0.0 1014185
03:00+8зюз22795 0.0 101630
06:00+10юз13756 0.0 101796
09:00+17зюз24496 0.0 1017673
12:00+20з233381 0.0 10172623
15:00+18с334591 0.0 1018750
18:00+18в1254100 0.0 1017210
21:00+12всв1169100 0.0 101810
6 августа, пт
пт600:00+11в117299 0.0 101813
03:00+12в2270100 0.0 101857
06:00+12в1272100 0.0 101879
09:00+12с2490100 0.5 1019186
12:00+14вюв3683100 0.7 1019657
15:00+11в41096100 2.9 1019484
18:00+11всв41294100 0.3 1019572
21:00+11всв41293100 0.4 1019561
7 августа, сб
сб700:00+12всв4128781 0.0 1019545
03:00+11всв4138443 0.0 1019563
06:00+13всв41279100 0.0 1019601
09:00+15в41069100 0.0 1019642
12:00+19в5853100 0.0 10181199
15:00+18вюв4961100 0.0 1018974
18:00+18в4961100 0.0 1017903
21:00+16в41272100 0.2 1017762
8 августа, вс
вс800:00+13в41395100 2.3 1017658
03:00+13всв51498100 6.6 1015795
06:00+12в51398100 10.3 1014781
09:00+13в51198100 11.4 1014607
12:00+14в41097100 0.0 1014601
15:00+14в41097100 0.2 1015502
18:00+14в3999100 0.4 1014412
21:00+14в2799100 0.6 1014323
9 августа, пн
пн900:00+14всв2599100 0.1 1014201
03:00+14св1299100 0.1 1015112
06:00+14ссз1199100 0.1 101577
09:00+15сз1197100 0.1 1015250
12:00+17сз228798 0.1 1016533
15:00+19сз227273 0.3 1017877
18:00+18с227856 0.1 1018553
21:00+12св249819 0.1 101978